Regional Weather Roundup
Issued by NWS

Home | Current Version | Previous Version | Graphics & Text | Print | Product List | Glossary Off
Versions: 1 2 3 4 5 6 7 8 9 10 11 12 13 14 15 16 17 18 19 20 21 22 23 24 25 26 27 28 29 30 31 32 33 34 35 36 37 38 39 40 41 42 43 44 45 46 47 48 49 50

586
ASUS43 KMKX 181810
RWRWI

WISCONSIN REGIONAL WEATHER ROUNDUP
NATIONAL WEATHER SERVICE MILWAUKEE/SULLIVAN WI
1200 PM CST THU JAN 18 2018

NOTE: "FAIR" INDICATES FEW OR NO CLOUDS BELOW 12,000 FEET WITH NO
SIGNIFICANT WEATHER AND/OR OBSTRUCTIONS TO VISIBILITY.

WIZ001-002-006>008-014>016-023>028-181900-
NORTHWEST WISCONSIN

CITY           SKY/WX    TMP DP  RH WIND       PRES   REMARKS
SUPERIOR ARPT  CLOUDY    35  24  65 SW7       29.76F WCI  29
6HR MIN TEMP:  27; 6HR MAX TEMP:  35;

ASHLAND        NOT AVBL
HAYWARD        FAIR      35  21  56 SW10      29.77F WCI  27
6HR MIN TEMP:  16; 6HR MAX TEMP:  35;

SIREN          FAIR      35  22  58 SW9       29.80F WCI  28
6HR MIN TEMP:  25; 6HR MAX TEMP:  35; 6HR PCP:  0.01;

CUMBERLAND     FAIR      32  19  59 W9        29.81S WCI  24
RICE LAKE      FAIR      32  21  62 SW6       29.83F WCI  27
6HR MIN TEMP:  22; 6HR MAX TEMP:  32;

CHETEK         FAIR      35  21  56 SW6       29.82F WCI  30
6HR MIN TEMP:  21; 6HR MAX TEMP:  35;

LADYSMITH      FAIR      33  21  61 SW10      29.81F WCI  25
6HR MIN TEMP:  17; 6HR MAX TEMP:  33;

EAU CLAIRE     FAIR      32  20  61 W14       29.84F WCI  22
6HR MIN TEMP:  19; 6HR MAX TEMP:  32;

MENOMONIE      FAIR      36  21  56 SW10      29.86F WCI  28
6HR MIN TEMP:  22; 6HR MAX TEMP:  36;

NEW RICHMOND   FAIR      34  20  56 SW8       29.83F WCI  27
6HR MIN TEMP:  20; 6HR MAX TEMP:  34; 6HR PCP:  0.01;

OSCEOLA        FAIR      37  23  57 SW7       29.86F WCI  31
6HR MIN TEMP:  19; 6HR MAX TEMP:  37; 6HR PCP:  0.01;

$$

WIZ003>005-009-010-017-018-181900-
NORTH CENTRAL WISCONSIN

CITY           SKY/WX    TMP DP  RH WIND       PRES   REMARKS
MANITOWISH WTR CLOUDY    27  19  72 W12       29.72F WCI  17
6HR MIN TEMP:  17; 6HR MAX TEMP:  27;

ARBOR VITAE    CLOUDY    32  24  72 W13G18    29.72F WCI  22
6HR MIN TEMP:  19; 6HR MAX TEMP:  32;

WOODRUFF       CLOUDY    32  24  72 W13G18    29.72F WCI  22
6HR MIN TEMP:  19; 6HR MAX TEMP:  32;

RHINELANDER    CLOUDY    28  21  75 W10       29.75F WCI  19
6HR MIN TEMP:  17; 6HR MAX TEMP:  28;

EAGLE RIVER    PTSUNNY   26  19  72 W10       29.72F WCI  17
6HR MIN TEMP:  16; 6HR MAX TEMP:  26;

LAND O LAKES   CLOUDY    28  21  73 W5        29.72F WCI  23
6HR MIN TEMP:  18; 6HR MAX TEMP:  28;

PHILLIPS       FAIR      29  20  68 SW9       29.76F WCI  21
6HR MIN TEMP:  20; 6HR MAX TEMP:  29;

TOMAHAWK       CLOUDY    28  19  69 SW5       29.77F WCI  23
6HR MIN TEMP:  19; 6HR MAX TEMP:  28;

MEDFORD        FAIR      29  19  65 SW9       29.79F WCI  20
6HR MIN TEMP:  19; 6HR MAX TEMP:  29;

MERRILL        CLOUDY    29  20  66 W5        29.81F WCI  24
6HR MIN TEMP:  19; 6HR MAX TEMP:  29;

$$

WIZ029-030-035-036-043>047-181900-
CENTRAL WISCONSIN

CITY           SKY/WX    TMP DP  RH WIND       PRES   REMARKS
WAUSAU         FAIR      30  19  63 W8        29.80F WCI  22
6HR MIN TEMP:  18; 6HR MAX TEMP:  30;

MOSINEE        MOSUNNY   28  19  69 SW12      29.84F WCI  18
MARSHFIELD     FAIR      29  18  63 W12       29.82F WCI  19
6HR MIN TEMP:  17; 6HR MAX TEMP:  29;

STEVENS POINT  FAIR      28  17  64 SW9       29.85F WCI  19
6HR MIN TEMP:  17; 6HR MAX TEMP:  28;

WAUPACA        FAIR      33  19  55 SW7       29.87F WCI  27
6HR MIN TEMP:  21; 6HR MAX TEMP:  33;

WAUTOMA        FAIR      31  19  61 SW14      29.89F WCI  21
6HR MIN TEMP:  17; 6HR MAX TEMP:  31;

WISC RAPIDS    FAIR      30  17  58 SW15      29.86F WCI  19
6HR MIN TEMP:  17; 6HR MAX TEMP:  30;

CAMP DOUGLAS   MOSUNNY   32  19  59 W10       29.89F WCI  24
$$

WIZ011>013-019>022-031-037>040-048>050-181900-
NORTHEAST WISCONSIN

CITY           SKY/WX    TMP DP  RH WIND       PRES   REMARKS
ANTIGO         FAIR      27  19  73 SW9       29.79F WCI  17
6HR MIN TEMP:  18; 6HR MAX TEMP:  27;

SHAWANO        FAIR      29  19  64 SW10G17   29.84F WCI  20
6HR MIN TEMP:  21; 6HR MAX TEMP:  29;

OCONTO         FAIR      26  17  68 SW8       29.84F WCI  17
6HR MIN TEMP:  19; 6HR MAX TEMP:  26;

STURGEON BAY   FAIR      27  19  72 SW12      29.84F WCI  17
6HR MIN TEMP:  19; 6HR MAX TEMP:  28;

GREEN BAY      FAIR      26  18  71 SW8       29.87F WCI  18
6HR MIN TEMP:  18; 6HR MAX TEMP:  26;

MANITOWOC      FAIR      29  19  66 SW7       29.90F WCI  22
6HR MIN TEMP:  21; 6HR MAX TEMP:  29;

APPLETON       PTSUNNY   23  16  74 SW14      29.86F WCI  11
CLINTONVILLE   FAIR      30  19  64 SW13      29.85F WCI  20
OSHKOSH        FAIR      27  18  69 SW15      29.88F WCI  15
6HR MIN TEMP:  20; 6HR MAX TEMP:  27;

$$

WIZ032>034-041-042-053>061-181900-
SOUTHWEST WISCONSIN

CITY           SKY/WX    TMP DP  RH WIND       PRES   REMARKS
LA CROSSE      FAIR      30  19  63 S10       29.93F WCI  21
6HR MIN TEMP:  19; 6HR MAX TEMP:  30;

SPARTA         FAIR      33  20  58 SW7       29.92F WCI  27
6HR MIN TEMP:  19; 6HR MAX TEMP:  33; 6HR PCP:  0.01;

VIROQUA        FAIR      27  20  72 SW15      29.93F WCI  16
6HR MIN TEMP:  16; 6HR MAX TEMP:  27;

BOSCOBEL       FAIR      30  17  58 SW12      30.01F WCI  20
6HR MIN TEMP:  15; 6HR MAX TEMP:  30;

PRAIRIE DU CHI FAIR      29  16  56 SW7       30.01F WCI  22
6HR MIN TEMP:  18; 6HR MAX TEMP:  29;

PLATTEVILLE    FAIR      27  18  68 SW15      30.02F WCI  16
6HR MIN TEMP:  15; 6HR MAX TEMP:  27;

$$

WIZ056-057-062-063-064-067-068-181900-
SOUTH CENTRAL WISCONSIN

CITY           SKY/WX    TMP DP  RH WIND       PRES   REMARKS
REEDSBURG      FAIR      29  18  64 SW12G18   29.93F WCI  19
6HR MIN TEMP:  18; 6HR MAX TEMP:  29;

BARABOO/DELLS  FAIR      29  17  62 SW18      29.91F WCI  16
6HR MIN TEMP:  17; 6HR MAX TEMP:  29;

LONE ROCK      FAIR      29  18  63 SW9       29.98F WCI  20
6HR MIN TEMP:  14; 6HR MAX TEMP:  29;

MINERAL POINT  FAIR      30  19  64 SW10      29.97F WCI  21
MADISON        FAIR      27  16  63 SW9       29.98F WCI  18
6HR MIN TEMP:  18; 6HR MAX TEMP:  27;

MIDDLETON      FAIR      29  17  59 SW12G20   29.97F WCI  20
6HR MIN TEMP:  19; 6HR MAX TEMP:  29;

WATERTOWN      NOT AVBL
MONROE         FAIR      27  16  63 SW17G23   29.99F WCI  14
JANESVILLE     SUNNY     27  16  63 SW13      30.02F WCI  16
$$

WIZ051-052-058>065-066-070>072-181900-
SOUTHEAST WISCONSIN

CITY           SKY/WX    TMP DP  RH WIND       PRES   REMARKS
MILWAUKEE      PTSUNNY   29  16  58 W20G28    29.98F WCI  16
6HR MIN TEMP:  19; 6HR MAX TEMP:  30;

WAUKESHA       SUNNY     27  14  59 SW17G23   29.98F WCI  14
MILWAUKEE/TIMM SUNNY     27  14  59 SW18G26   29.98F WCI  13
RACINE         FAIR      26  15  63 W17G28    29.99F WCI  13
6HR MIN TEMP:  19; 6HR MAX TEMP:  26;

BURLINGTON     FAIR      26  15  60 SW15G22   30.01F WCI  14
6HR MIN TEMP:  17; 6HR MAX TEMP:  26;

KENOSHA        FAIR      27  15  61 SW21G30   30.00F WCI  13
6HR MIN TEMP:  17; 6HR MAX TEMP:  27;

FOND DU LAC    FAIR      27  16  63 SW16      29.90F WCI  15
6HR MIN TEMP:  19; 6HR MAX TEMP:  27;

SHEBOYGAN      FAIR      27  19  72 SW14      29.89F WCI  16
6HR MIN TEMP:  20; 6HR MAX TEMP:  27;

WEST BEND      FAIR      28  18  64 SW13      29.92F WCI  18
JUNEAU         FAIR      25  17  70 S17       29.95F WCI  12
6HR MIN TEMP:  15; 6HR MAX TEMP:  25;

$$

LSZ147-162-181900-
LAKE SUPERIOR

STATION/POSITION TIME  TEMP    WIND        PRES    WAVE
                       AIR SEA DIR/SP/G            HT/PER
                 (UTC) (F)     (DEG/KT/KT) (MB)    (FT/S)
DEVILS ISLAND    1800   33     240/ 16/ 21 1006.9F
SAXON HARBOR     1740   34     220/  8/ 14 1007.1F
$$

LMZ867-665-643>646-181900-
LAKE MICHIGAN

STATION/POSITION TIME  TEMP    WIND        PRES    WAVE
                       AIR SEA DIR/SP/G            HT/PER
                 (UTC) (F)     (DEG/KT/KT) (MB)    (FT/S)
NORTHPORT PIER   1751   26     170/ 15     1009.5F
KEWAUNEE LAKESHO 1748   27     240/  6/ 11 1010.7F
SHEBOYGAN LAKESH 1800   27     210/ 15/ 18 1013.2F
PORT WASHI



USA.gov is the U.S. government's official web portal to all federal, state and local government web resources and services.